Mobile, AL

4:03 AM CDT on April 25, 2018 (GMT -0500)
Mobile Regional

Weather History for KMOB - November, 2013

Change the Weather History Date:

Sunday, November 10, 2013

  Actual Average Record
Temperature  
Mean Temperature 64 °F 61 °F  
Max Temperature 75 °F 72 °F 81 °F (1988)
Min Temperature 52 °F 50 °F 28 °F (1991)
Degree Days  
Heating Degree Days 1 6  
Month to date heating degree days 38 46  
Since 1 July heating degree days 68 101  
Cooling Degree Days 0 2  
Month to date cooling degree days 5 21  
Year to date cooling degree days 2485 2483  
Growing Degree Days 14 (Base 50)    
Moisture  
Dew Point 50 °F    
Average Humidity 65    
Maximum Humidity 86    
Minimum Humidity 44    
Precipitation  
Precipitation 0.00 in 0.18 in 3.14 in (1919)
Month to date precipitation 0.28 1.71  
Year to date precipitation 58.76 57.67  
Snow  
Snow 0.00 in 0.00 in 0.00 in (2002)
Month to date snowfall 0.0 0.0  
Since 1 July snowfall 0.0 0.0  
Snow Depth 0.00 in    
Sea Level Pressure  
Sea Level Pressure 30.23 in    
Wind  
Wind Speed 6 mph (NNE)    
Max Wind Speed 14 mph    
Max Gust Speed 17 mph    
Visibility 10 miles    
Events      
T = Trace of Precipitation, MM = Missing Value Source: NWS Daily Summary

Daily Weather History Graph

Daily Weather History Graph

Search for Another Location

Airport or City:

Astronomy

Nov. 10, 2013 Rise Set
Actual Time 6:15 AM CST 4:58 PM CST
Civil Twilight 5:49 AM CST 5:23 PM CST
Nautical Twilight 5:21 AM CST 5:52 PM CST
Astronomical Twilight 4:52 AM CST 6:20 PM CST
Moon 12:37 PM CST (11/10) No Moon Set
Length of Visible Light 11h 33m
Length of Day
10h 42m
First Quarter, 56% of the Moon is Illuminated
Nov 10
First Quarter
Nov 17
Full
Nov 25
Last Quarter
Dec 2
New
Dec 9
First Quarter

Hourly Weather History & Observations

Time (CST) Temp. Dew Point Humidity Pressure Visibility Wind Dir Wind Speed Gust Speed Precip Events Conditions
12:56 AM 55.9 °F 50.0 °F 80% 30.21 in 10.0 mi ENE 4.6 mph - N/A   Clear
1:56 AM 55.9 °F 51.1 °F 84% 30.21 in 10.0 mi NNW 3.5 mph - N/A   Scattered Clouds
2:56 AM 57.0 °F 51.1 °F 81% 30.22 in 10.0 mi North 4.6 mph - N/A   Overcast
3:56 AM 57.0 °F 51.1 °F 81% 30.22 in 10.0 mi NNE 3.5 mph - N/A   Overcast
4:56 AM 57.0 °F 51.1 °F 81% 30.22 in 10.0 mi NNE 8.1 mph - N/A   Overcast
5:56 AM 57.0 °F 50.0 °F 77% 30.24 in 10.0 mi NNE 4.6 mph - N/A   Mostly Cloudy
6:56 AM 57.0 °F 50.0 °F 77% 30.26 in 10.0 mi NNE 8.1 mph - N/A   Mostly Cloudy
7:56 AM 59.0 °F 50.0 °F 72% 30.27 in 10.0 mi NNE 5.8 mph - N/A   Mostly Cloudy
8:56 AM 62.1 °F 51.1 °F 67% 30.28 in 10.0 mi Variable 4.6 mph - N/A   Mostly Cloudy
9:56 AM 66.0 °F 52.0 °F 60% 30.27 in 10.0 mi NNE 8.1 mph - N/A   Scattered Clouds
10:56 AM 69.1 °F 52.0 °F 54% 30.26 in 10.0 mi NNE 10.4 mph - N/A   Scattered Clouds
11:56 AM 72.0 °F 53.1 °F 51% 30.22 in 10.0 mi NE 9.2 mph - N/A   Partly Cloudy
12:56 PM 73.0 °F 52.0 °F 48% 30.20 in 10.0 mi North 5.8 mph - N/A   Scattered Clouds
1:56 PM 73.9 °F 51.1 °F 45% 30.19 in 10.0 mi North 6.9 mph - N/A   Scattered Clouds
2:56 PM 73.0 °F 51.1 °F 46% 30.19 in 10.0 mi North 6.9 mph - N/A   Scattered Clouds
3:56 PM 73.0 °F 50.0 °F 44% 30.19 in 10.0 mi NE 4.6 mph - N/A   Scattered Clouds
4:56 PM 69.1 °F 52.0 °F 54% 30.20 in 10.0 mi North 5.8 mph - N/A   Partly Cloudy
5:56 PM 64.0 °F 53.1 °F 67% 30.22 in 10.0 mi NNE 4.6 mph - N/A   Partly Cloudy
6:56 PM 60.1 °F 52.0 °F 75% 30.22 in 10.0 mi North 3.5 mph - N/A   Partly Cloudy
7:56 PM 59.0 °F 51.1 °F 75% 30.23 in 10.0 mi North 5.8 mph - N/A   Partly Cloudy
8:56 PM 57.9 °F 48.9 °F 72% 30.23 in 10.0 mi North 6.9 mph - N/A   Clear
9:56 PM 55.9 °F 46.9 °F 72% 30.24 in 10.0 mi North 5.8 mph - N/A   Clear
10:56 PM 54.0 °F 46.9 °F 77% 30.23 in 10.0 mi North 4.6 mph - N/A   Clear
11:56 PM 53.1 °F 45.0 °F 74% 30.22 in 10.0 mi Calm Calm - N/A   Clear